When you browse on this site, cookies collect data to enhance your experience and personalize the content and advertising you see.
Visit our Privacy Policy to learn more. By continuing to use the site, you agree to this use of cookies and data.
  • In Hungary
  • List of Countries
  • For 7 days
  • Water Temperature
  • Satellite Maps
  • Weather Map
  • News
  • Weather Widgets
  • user-avatar
    Login

    Hourly Weather Penglai

    Today, 26 April, Friday

    Time Temperature Precipitation Wind Pressure Humidity
    00:00 +6°C° 0 mm 5 mps 760 mmHg 68%
    01:00 +6°C° 0 mm 5 mps 759 mmHg 69%
    02:00 +6°C° 0 mm 5 mps 759 mmHg 72%
    03:00 +5°C° 0 mm 6 mps 760 mmHg 70%
    04:00 +6°C° 0 mm 7 mps 760 mmHg 69%
    05:00 +6°C° 0 mm 7 mps 761 mmHg 67%
    06:00 +7°C° 0 mm 8 mps 761 mmHg 65%
    07:00 +9°C° 0 mm 8 mps 761 mmHg 63%
    08:00 +9°C° 0 mm 8 mps 762 mmHg 61%
    09:00 +10°C° 0 mm 8 mps 762 mmHg 53%
    10:00 +11°C° 0 mm 7 mps 763 mmHg 44%
    11:00 +12°C° 0 mm 7 mps 763 mmHg 36%
    12:00 +12°C° 0 mm 7 mps 763 mmHg 35%
    13:00 +12°C° 0 mm 7 mps 763 mmHg 34%
    14:00 +12°C° 0 mm 7 mps 763 mmHg 33%
    15:00 +13°C° 0 mm 6 mps 763 mmHg 33%
    16:00 +13°C° 0 mm 5 mps 763 mmHg 32%
    17:00 +13°C° 0 mm 5 mps 763 mmHg 31%
    18:00 +12°C° 0 mm 4 mps 763 mmHg 35%
    19:00 +11°C° 0 mm 4 mps 764 mmHg 39%
    20:00 +8°C° 0 mm 4 mps 764 mmHg 43%
    21:00 +9°C° 0 mm 3 mps 764 mmHg 44%
    22:00 +9°C° 0 mm 3 mps 765 mmHg 45%
    23:00 +9°C° 0 mm 3 mps 765 mmHg 46%

    Tomorrow, 27 April, Saturday

    Time Temperature Precipitation Wind Pressure Humidity
    00:00 +9°C° 0 mm 3 mps 765 mmHg 45%
    01:00 +9°C° 0 mm 3 mps 765 mmHg 43%
    02:00 +9°C° 0 mm 3 mps 765 mmHg 42%
    03:00 +9°C° 0 mm 2 mps 765 mmHg 41%
    04:00 +9°C° 0 mm 2 mps 765 mmHg 40%
    05:00 +9°C° 0 mm 2 mps 765 mmHg 40%
    06:00 +10°C° 0 mm 2 mps 765 mmHg 38%
    07:00 +12°C° 0 mm 1 mps 765 mmHg 36%
    08:00 +14°C° 0 mm 1 mps 765 mmHg 33%
    09:00 +15°C° 0 mm 1 mps 766 mmHg 31%
    10:00 +16°C° 0 mm 1 mps 766 mmHg 28%
    11:00 +19°C° 0 mm 1 mps 766 mmHg 25%
    12:00 +18°C° 0 mm 1 mps 765 mmHg 25%
    13:00 +18°C° 0 mm 1 mps 765 mmHg 25%
    14:00 +18°C° 0 mm 1 mps 764 mmHg 25%
    15:00 +18°C° 0 mm 1 mps 764 mmHg 30%
    16:00 +16°C° 0 mm 1 mps 763 mmHg 34%
    17:00 +15°C° 0 mm 1 mps 763 mmHg 38%
    18:00 +14°C° 0.1 mm 1 mps 763 mmHg 45%
    19:00 +13°C° 0.1 mm 1 mps 764 mmHg 51%
    20:00 +12°C° 0.1 mm 1 mps 764 mmHg 58%
    21:00 +12°C° 0.3 mm 1 mps 764 mmHg 63%
    22:00 +12°C° 0.3 mm 2 mps 764 mmHg 68%
    23:00 +10°C° 0.3 mm 2 mps 765 mmHg 72%

    Day after tomorrow, 28 April, Sunday

    Time Temperature Precipitation Wind Pressure Humidity
    00:00 +10°C° 0.2 mm 2 mps 764 mmHg 74%
    01:00 +10°C° 0.2 mm 2 mps 764 mmHg 75%
    02:00 +9°C° 0.2 mm 2 mps 763 mmHg 77%
    03:00 +9°C° 0 mm 2 mps 763 mmHg 76%
    04:00 +9°C° 0 mm 3 mps 763 mmHg 75%
    05:00 +9°C° 0 mm 3 mps 763 mmHg 75%
    06:00 +10°C° 0 mm 3 mps 763 mmHg 69%
    07:00 +11°C° 0 mm 3 mps 763 mmHg 64%
    08:00 +13°C° 0 mm 2 mps 764 mmHg 59%
    09:00 +15°C° 0 mm 2 mps 763 mmHg 54%
    10:00 +16°C° 0 mm 2 mps 763 mmHg 49%
    11:00 +18°C° 0 mm 1 mps 763 mmHg 45%
    12:00 +17°C° 0 mm 2 mps 763 mmHg 45%
    13:00 +18°C° 0 mm 3 mps 762 mmHg 45%
    14:00 +18°C° 0 mm 4 mps 762 mmHg 46%
    15:00 +18°C° 0 mm 4 mps 761 mmHg 50%
    16:00 +17°C° 0 mm 4 mps 761 mmHg 55%
    17:00 +17°C° 0 mm 4 mps 761 mmHg 59%
    18:00 +15°C° 0 mm 4 mps 761 mmHg 63%
    19:00 +14°C° 0 mm 4 mps 761 mmHg 68%
    20:00 +13°C° 0 mm 5 mps 761 mmHg 72%
    21:00 +13°C° 0 mm 4 mps 761 mmHg 75%
    22:00 +12°C° 0 mm 4 mps 761 mmHg 77%
    23:00 +12°C° 0 mm 4 mps 761 mmHg 79%

    29 April, Monday

    Time Temperature Precipitation Wind Pressure Humidity
    00:00 +11°C° 0 mm 3 mps 761 mmHg 80%
    01:00 +11°C° 0 mm 3 mps 760 mmHg 82%
    02:00 +11°C° 0 mm 3 mps 760 mmHg 84%
    03:00 +11°C° 0 mm 3 mps 759 mmHg 84%
    04:00 +11°C° 0 mm 3 mps 759 mmHg 85%
    05:00 +11°C° 0 mm 3 mps 759 mmHg 86%
    06:00 +12°C° 0 mm 3 mps 759 mmHg 82%
    07:00 +12°C° 0 mm 3 mps 759 mmHg 78%
    08:00 +14°C° 0 mm 2 mps 759 mmHg 74%
    09:00 +16°C° 0 mm 2 mps 759 mmHg 68%
    10:00 +18°C° 0 mm 2 mps 759 mmHg 61%
    11:00 +20°C° 0 mm 2 mps 759 mmHg 55%
    12:00 +20°C° 0 mm 3 mps 758 mmHg 54%
    13:00 +21°C° 0 mm 3 mps 758 mmHg 53%
    14:00 +22°C° 0 mm 3 mps 757 mmHg 52%
    15:00 +21°C° 0 mm 3 mps 757 mmHg 54%
    16:00 +20°C° 0 mm 2 mps 756 mmHg 56%
    17:00 +19°C° 0 mm 2 mps 755 mmHg 58%
    18:00 +18°C° 0 mm 2 mps 756 mmHg 61%
    19:00 +18°C° 0 mm 2 mps 756 mmHg 65%
    20:00 +17°C° 0 mm 2 mps 756 mmHg 68%
    21:00 +16°C° 0 mm 3 mps 756 mmHg 70%
    22:00 +15°C° 0 mm 4 mps 756 mmHg 73%
    23:00 +15°C° 0 mm 4 mps 756 mmHg 76%

    30 April, Tuesday

    Time Temperature Precipitation Wind Pressure Humidity
    00:00 +15°C° 0 mm 5 mps 756 mmHg 76%
    01:00 +15°C° 0 mm 5 mps 755 mmHg 77%
    02:00 +14°C° 0 mm 5 mps 755 mmHg 77%
    03:00 +14°C° 0 mm 7 mps 756 mmHg 72%
    04:00 +12°C° 0 mm 9 mps 757 mmHg 66%
    05:00 +11°C° 0 mm 11 mps 757 mmHg 60%
    06:00 +10°C° 0 mm 12 mps 758 mmHg 58%
    07:00 +10°C° 0 mm 12 mps 759 mmHg 57%
    08:00 +10°C° 0 mm 12 mps 759 mmHg 56%
    09:00 +12°C° 0 mm 11 mps 760 mmHg 50%
    10:00 +13°C° 0 mm 10 mps 760 mmHg 45%
    11:00 +15°C° 0 mm 9 mps 760 mmHg 40%
    12:00 +15°C° 0 mm 8 mps 760 mmHg 37%
    13:00 +15°C° 0 mm 7 mps 760 mmHg 34%
    14:00 +16°C° 0 mm 7 mps 760 mmHg 31%
    15:00 +15°C° 0 mm 6 mps 760 mmHg 31%
    16:00 +15°C° 0 mm 6 mps 759 mmHg 31%
    17:00 +15°C° 0 mm 5 mps 759 mmHg 31%
    18:00 +14°C° 0 mm 5 mps 760 mmHg 34%
    19:00 +13°C° 0 mm 4 mps 760 mmHg 38%
    20:00 +12°C° 0 mm 4 mps 760 mmHg 41%
    21:00 +12°C° 0 mm 4 mps 760 mmHg 41%
    22:00 +12°C° 0 mm 3 mps 760 mmHg 41%
    23:00 +12°C° 0 mm 3 mps 760 mmHg 41%

    1 May, Wednesday

    Time Temperature Precipitation Wind Pressure Humidity
    00:00 +12°C° 0 mm 3 mps 760 mmHg 39%
    01:00 +12°C° 0 mm 4 mps 759 mmHg 36%
    02:00 +12°C° 0 mm 4 mps 759 mmHg 34%
    03:00 +12°C° 0 mm 4 mps 759 mmHg 35%
    04:00 +10°C° 0 mm 5 mps 759 mmHg 37%
    05:00 +10°C° 0 mm 5 mps 759 mmHg 39%
    06:00 +13°C° 0 mm 6 mps 759 mmHg 37%
    07:00 +15°C° 0 mm 6 mps 759 mmHg 35%
    08:00 +17°C° 0 mm 6 mps 759 mmHg 33%
    09:00 +18°C° 0 mm 7 mps 759 mmHg 31%
    10:00 +20°C° 0 mm 7 mps 759 mmHg 29%
    11:00 +21°C° 0 mm 7 mps 759 mmHg 27%
    12:00 +22°C° 0 mm 7 mps 758 mmHg 25%
    13:00 +22°C° 0 mm 7 mps 758 mmHg 24%
    14:00 +23°C° 0 mm 6 mps 758 mmHg 22%
    15:00 +23°C° 0 mm 6 mps 757 mmHg 23%
    16:00 +22°C° 0 mm 5 mps 757 mmHg 23%
    17:00 +22°C° 0 mm 4 mps 757 mmHg 23%
    18:00 +21°C° 0 mm 3 mps 757 mmHg 24%
    19:00 +19°C° 0 mm 3 mps 758 mmHg 25%
    20:00 +18°C° 0 mm 2 mps 758 mmHg 26%
    21:00 +18°C° 0 mm 3 mps 758 mmHg 25%
    22:00 +18°C° 0 mm 3 mps 758 mmHg 24%
    23:00 +18°C° 0 mm 4 mps 758 mmHg 23%
    Show more